Flag for United Kingdom Weather past 2 weeks in Sheffield, England, United Kingdom

Now
45 °F

Passing clouds.


Feels Like: 37 °F
Forecast: N/A
Wind: 18 mph from Northwest

Location: Manchester Airport

Current Time: Mar 26, 2015 at 7:18:01 PM

Latest Report: Mar 26, 2015 at 6:50 PM


Visibility: N/A

Pressure: 29.80 "Hg

Humidity: 66%

Dew point: 34 °F

Location of SheffieldLocation

Historic Weather in Sheffield — Graph

°F

Sheffield temperature yesterday

Maximum temperature yesterday: 48 °F (at 1:50 PM)
Minimum temperature yesterday: 27 °F (at 5:50 AM)
Average temperature yesterday: 39 °F

Past Weeks' High & Low Weather Summary

 TemperatureHumidityPressure
High55 °F (Mar 12, 12:20 PM)100% (Mar 11, 5:50 PM)30.60 "Hg (Mar 11, 5:50 PM)
Low27 °F (Mar 18, 6:20 AM)35% (Mar 12, 7:20 PM)29.42 "Hg (Mar 26, 5:50 AM)
Average41 °F80%30.23 "Hg
* Reported Mar 11 5:20 PM — Mar 26 5:50 PM, Sheffield, Weather by CustomWeather, © 2015

Note: Actual official high and low records may vary slightly from our data, if they occured in-between our weather recording intervals... More about our weather records

Advertising

Sheffield weather history for previous 24 hours

 ConditionsComfort  
Time TempWeatherWind HumidityBarometerVisibility
5:50 PM
Thu, Mar 26
46 °FPassing clouds.21 mph62%29.77 "HgN/A
5:20 PM46 °FPassing clouds.22 mph66%29.74 "HgN/A
4:50 PM46 °FPassing clouds.23 mph66%29.71 "HgN/A
4:20 PM48 °FScattered clouds.25 mph62%29.71 "HgN/A
3:50 PM46 °FPassing clouds.23 mph71%29.68 "HgN/A
3:20 PM48 °FScattered showers. Scattered clouds.24 mph62%29.68 "HgN/A
2:50 PM48 °FScattered clouds.21 mph58%29.65 "HgN/A
2:20 PM48 °FScattered clouds.24 mph62%29.65 "HgN/A
1:50 PM48 °FScattered clouds.21 mph71%29.62 "HgN/A
1:20 PM48 °FScattered clouds.23 mph66%29.62 "HgN/A
12:50 PM48 °FScattered clouds.24 mph71%29.59 "HgN/A
12:20 PM48 °FPartly sunny.21 mph71%29.56 "HgN/A
11:50 AM46 °FBroken clouds.25 mph82%29.56 "HgN/A
11:20 AM46 °FCloudy.17 mph82%29.53 "HgN/A
10:50 AM46 °FCloudy.22 mph87%29.53 "Hg5 mi
10:20 AM46 °FCloudy.20 mph87%29.50 "HgN/A
9:50 AM46 °FCloudy.17 mph87%29.47 "HgN/A
9:20 AM46 °FBroken clouds.15 mph93%29.47 "HgN/A
8:50 AM45 °FMostly cloudy.13 mph100%29.45 "Hg5 mi
8:20 AM41 °FFog.9 mph100%29.45 "Hg2 mi
7:50 AM39 °FMostly cloudy.12 mph100%29.45 "HgN/A
7:20 AM37 °FLight rain. Mostly cloudy.13 mph100%29.42 "Hg3 mi
6:50 AM37 °FDrizzle. Cloudy.13 mph93%29.42 "Hg2 mi
6:20 AM36 °FDrizzle. Partly sunny.15 mph100%29.42 "Hg2 mi
5:50 AM36 °FLight rain. Overcast.16 mph93%29.42 "Hg4 mi
5:20 AM36 °FLight rain. Mostly cloudy.15 mph93%29.45 "Hg4 mi
4:50 AM36 °FRain. Partly cloudy.15 mph93%29.45 "Hg4 mi
4:20 AM36 °FLight rain. Overcast.13 mph93%29.47 "Hg3 mi
3:50 AM36 °FRain. Mostly cloudy.15 mph100%29.47 "Hg3 mi
3:20 AM36 °FRain. Mostly cloudy.14 mph100%29.50 "Hg3 mi
2:50 AM36 °FRain. Partly cloudy.13 mph100%29.53 "Hg3 mi
2:20 AM37 °FRain. Partly cloudy.12 mph93%29.56 "Hg4 mi
1:50 AM37 °FRain. Partly cloudy.14 mph93%29.56 "Hg4 mi
1:20 AM39 °FLight rain. Partly cloudy.14 mph87%29.59 "Hg4 mi
12:50 AM41 °FLight rain. Passing clouds.17 mph76%29.62 "Hg6 mi
12:20 AM41 °FLight rain. Passing clouds.18 mph76%29.65 "HgN/A
11:50 PM
Wed, Mar 25
43 °FPassing clouds.12 mph66%29.65 "HgN/A
11:20 PM43 °FPassing clouds.10 mph66%29.68 "HgN/A
10:50 PM43 °FPassing clouds.9 mph66%29.71 "HgN/A
10:20 PM43 °FQuite cool.9 mph61%29.71 "HgN/A
9:50 PM43 °FQuite cool.12 mph61%29.74 "HgN/A
9:20 PM43 °FClear.10 mph61%29.74 "Hg10 mi
8:50 PM43 °FClear.8 mph61%29.74 "Hg10 mi
8:20 PM43 °FQuite cool.8 mph61%29.77 "HgN/A
7:50 PM43 °FClear.7 mph66%29.77 "Hg10 mi
7:20 PM41 °FClear.7 mph66%29.80 "Hg10 mi
Weather by CustomWeather, © 2015

See weather overviewHow to use our weather pages